#timestamp,LO_Frequency,Hit,StdDev 
1570428015.2,286046994.5,N
1570428035.1,286046993.6,N
1570428036.0,286046993.6,N
1570428055.8,286046993.6,N
1570428075.7,286046994.6,N
1570428095.5,286046991.7,N
1570428115.3,286046994.8,N
1570428135.2,286046992.1,N
1570428155.9,286046994.5,N
1570428175.7,286046993.9,N
1570428195.6,286046994.2,N
1570428215.4,286046994.7,N
1570428235.2,286046994.5,N
1570428255.1,286046992.0,N
1570428256.0,286046992.0,N
1570428275.8,286046994.4,N
1570428295.7,286046992.1,N
1570428315.5,286046992.6,N
1570428335.3,286046993.2,N
1570428355.2,286046992.6,N
1570428375.0,286046991.7,N
1570428375.9,286046991.7,Y
1570428395.8,286046998.6,P
1570428415.6,286046999.0,N
1570428435.4,286046999.2,N
1570428455.3,286046999.4,N
1570428475.1,286046999.0,N
1570428495.8,286046999.3,N
1570428515.7,286046998.2,N
1570428535.5,286046998.4,N
1570428555.4,286046999.0,N
1570428575.2,286046998.9,N
1570428595.0,286046998.6,N
1570428595.9,286046998.6,N
1570428615.8,286047000.8,N
1570428635.6,286047000.3,N
1570428655.4,286046998.2,N
1570428675.3,286046998.8,N
1570428695.1,286046998.4,N
1570428715.9,286046998.3,N
1570428735.7,286047000.3,N
1570428755.5,286047000.7,N
1570428775.4,286047000.7,N
1570428795.2,286046998.2,N
1570428815.1,286046998.4,N
1570428816.0,286047011.9,Y
1570428835.8,286047000.9,P
1570428855.6,286047000.3,N
1570428875.5,286047000.2,N
1570428895.3,286046999.7,N
1570428915.1,286047002.3,Y
1570428935.9,286047002.7,P
1570428955.7,286047002.6,N
1570428975.6,286047002.4,N
1570428995.4,286047001.8,N
1570429015.2,286047002.2,N
1570429035.1,286047002.2,N
1570429036.0,286047002.2,N
1570429055.8,286047001.6,N
1570429075.7,286047001.7,N
1570429095.5,286047001.7,N
1570429115.3,286047002.6,Y
1570429135.2,286047002.3,P
1570429155.0,286047000.4,N
1570429155.9,286047000.4,N
1570429175.7,286047001.1,N
1570429195.6,286047000.9,N
1570429215.4,286047000.2,N
1570429235.3,286047000.8,N
1570429255.1,286046998.5,N
1570429275.8,286046998.6,N
1570429295.7,286046996.9,N
1570429315.5,286046997.4,N
1570429335.4,286046997.8,N
1570429355.2,286046995.0,N
1570429375.0,286046995.4,N
1570429375.9,286046995.4,N
1570429395.8,286046997.2,N
1570429415.6,286046996.8,N
1570429435.4,286046996.9,N
1570429455.3,286046998.9,N
1570429475.1,286046997.0,N
1570429495.9,286046996.8,N
1570429515.7,286046997.0,N
1570429535.5,286046996.8,N
1570429555.4,286046997.1,N
1570429605.2,286046997.4,E
1570429615.2,286046999.1,N
1570429635.9,286047000.9,P
1570429655.7,286047001.0,N
1570429675.6,286046998.7,N
1570429695.4,286046998.5,N
1570429715.2,286047000.9,N
1570429735.1,286047000.5,N
1570429736.0,286047000.5,N
1570429755.8,286046998.5,N
1570429775.7,286046998.6,N
1570429795.5,286046998.7,N
1570429815.3,286046996.5,Y
1570429835.2,286046998.7,P
1570429855.0,286046999.4,N
1570429855.9,286046999.4,N
1570429875.8,286046998.8,Y
1570429895.6,286047001.0,P
1570429915.4,286047000.7,N
1570429935.3,286047000.6,N
1570429955.1,286047000.8,N
1570429975.9,286047002.4,Y
1570429995.7,286047000.2,P
1570430015.5,286046998.5,P
1570430035.4,286047000.4,N
1570430055.2,286047000.2,N
1570430075.0,286047000.2,N
1570430075.9,286047000.2,N
1570430095.8,286047000.1,N
1570430115.6,286047002.0,Y
1570430135.5,286046999.7,P
1570430155.3,286047002.1,P
1570430175.1,286047001.7,N
1570430195.9,286047004.4,Y
1570430215.7,286047004.0,P
1570430235.5,286047001.9,N
1570430255.4,286047003.8,N
1570430275.2,286047004.2,Y
1570430295.1,286046999.7,P
1570430296.0,286046999.7,N
1570430315.8,286047002.7,N
1570430335.6,286047002.8,N
1570430355.5,286047000.2,N
1570430375.3,286047002.3,N
1570430395.2,286047001.9,N
1570430415.9,286047000.1,N
1570430435.7,286047002.8,N
1570430455.6,286047002.1,N
1570430475.4,286047002.5,N
1570430495.2,286047001.8,N
1570430515.1,286047003.8,Y
1570430516.0,286047003.8,P
1570430535.8,286047002.3,N
1570430555.7,286047000.3,N
1570430575.5,286047000.3,N
1570430595.3,286047000.6,N
1570430615.2,286047001.0,N
1570430635.0,286046999.3,N
1570430635.9,286046999.3,N
1570430655.8,286046999.0,N
1570430675.6,286047002.8,N
1570430695.4,286047002.7,N
1570430715.3,286046999.9,N
1570430735.1,286047001.0,N
1570430755.8,286047001.2,N
1570430775.7,286046998.6,N
1570430795.5,286046998.2,N
1570430815.4,286046998.2,N
1570430835.2,286046998.4,N
1570430855.0,286046998.6,N
1570430855.9,286046998.6,N
1570430875.8,286046996.9,N
1570430895.6,286046995.6,N
1570430915.5,286046995.1,N
1570430935.3,286046995.9,N
1570430955.1,286046995.8,N
1570430975.9,286046995.1,N
1570430995.7,286046997.4,N
1570431015.5,286046997.8,N
1570431035.4,286046997.4,N
1570431055.2,286046998.3,N
1570431075.1,286046998.1,N
1570431076.0,286046998.1,N
1570431095.8,286047000.7,N
1570431115.6,286046999.2,N
1570431135.5,286046996.8,N
1570431155.3,286046996.7,N
1570431175.2,286046997.7,N
1570431195.9,286046996.8,N
1570431215.7,286046997.3,N
1570431235.6,286046997.4,N
1570431255.4,286046997.2,N
1570431275.2,286046996.1,N
1570431295.1,286046996.3,N
1570431296.0,286046996.3,N
1570431315.8,286046996.3,N
1570431335.7,286046996.3,Y
1570431355.5,286046999.5,P
1570431375.3,286046997.2,N
1570431395.2,286046997.3,N
1570431415.0,286046996.9,Y
1570431415.9,286046996.9,P
1570431435.8,286046999.7,N
1570431455.6,286047001.5,N
1570431475.4,286047003.6,N
1570431495.3,286047004.4,N
1570431515.1,286047002.8,N
1570431535.8,286047001.2,N
1570431555.7,286046998.3,N
1570431575.5,286047001.1,N
1570431595.4,286046999.4,N
